Location: Trebic
(49.2170°N, 15.8830°E)
Time: 06:33:23
(UTC+02:00)

Transit 4A - Pass Details

Date: 31 July 2019
Orbit: 863 x 981 km, 66.8° (Epoch: 20 August)

Event Time Altitude Azimuth Distance (km) Brightness Sun altitude
Exits shadow 02:57:53 - 269° (W) 3,634 10.7 -17.7°
Reaches altitude 10° 03:00:55 10° 284° (WNW) 2,738 10.2 -17.5°
Maximum altitude 03:05:53 23° 334° (NNW) 1,961 10.0 -17.1°
Drops below altitude 10° 03:10:51 10° 26° (NNE) 2,728 11.7 -16.7°
Sets 03:14:01 0° 40° (NE) 3,663 12.8 -16.4°
